Simultaneous Nadir Overpasses (SNOs) Predictions

Prediction of SNOs between METOP-A and NOAA-19 Satellite Orbit:

Table of predicted SNOs for the next 14.0 days since TLE Epoch: 12/14/2012
Index Date (METOP-A) Time (METOP-A) Lat,Lon (METOP-A) SZA (METOP-A ) Date (NOAA-19) Time (NOAA-19) Lat,Lon (NOAA-19) SZA (NOAA-19 ) Distance(km) Time Diff (sec)
1 12/20/2012 16:13:23 73.29, -70.56 96.74 12/20/2012 16:12:13 73.29, -70.58 96.75 0.64 70
2 12/20/2012 17:04:05 -73.28, 96.73 83.28 12/20/2012 17:03:11 -73.30, 96.67 83.25 2.87 54
3 12/20/2012 17:54:45 73.27, -95.95 96.72 12/20/2012 17:54:17 73.25, -95.99 96.70 2.95 28
4 12/20/2012 18:45:27 -73.25, 71.34 83.30 12/20/2012 18:45:15 -73.25, 71.25 83.30 2.75 12
5 12/20/2012 19:36:08 73.20,-121.45 96.65 12/20/2012 19:36:21 73.20,-121.41 96.65 1.36 13
6 12/20/2012 20:26:50 -73.18, 45.84 83.37 12/20/2012 20:27:19 -73.21, 45.83 83.35 3.30 29
7 12/20/2012 21:17:30 73.17,-146.84 96.63 12/20/2012 21:18:25 73.16,-146.83 96.61 1.59 55
8 12/20/2012 22:08:12 -73.15, 20.45 83.39 12/20/2012 22:09:23 -73.16, 20.41 83.39 1.58 71




NCC Satellite Simultaneous Nadir Overpasses (SNOs) Prediction Service
